Forside
METAR-TAF:

METAR-TAF

Lufthavne :

Minocqua / Woodruff, Wisconsin, USA

Breddekreds: 45-56N, længdekreds: 089-44W, højde: 496 m

Aktuelle vejr

Denne rapport blev lavet for 22 minutter siden, kl. 08:35 UTC
Vind 3 kt fra sydsydvest
Temperatur 11°C
Fugtighed 58%
Tryk 1009 hPa
Sigt: 16.1 km
Overskyet i en højde af 8000 ft
let finregn

METAR: KARV 260835Z AUTO 20003KT 10SM -DZ OVC080 11/03 A2980 RMK AO2 T01100032

Tid: 03:57 (08:57 UTC)


TAF: fraværende

Vejrobservationer og prognoser fra mere end 4000 lufthavne (METAR og TAF).

De gule og røde prikker repræsenterer de meteorologiske stationer.

Flyt musen over at se navnet på stationen.

Så klik over at se vejr observationer og prognoser.

At skifte det kort: Klik på de grønne knapper med et sort kors for at zoome ind; på den grønne knap med en bindestreg for at zoome ud; eller på de grønne pile for tilstødende kort.


METAR-TAF: